Wind_Speed
15 14 14 15 18 21 21 21 22 22 21 19 18 17 18 19 20 21 22 22 22 22 21 20 19 18 17 15 13 11 10 8 7 6 5 4 4 3 2 1 0 1 1 1 1 1 1 1 1 1 1 1 1 1 2 4 5 6 7 8 8 8 9 10 11 12 13 14 15 15 15 15 15 16 16 17 18 18 19 20 20 20 21 21 22 22
16 16 15 15 18 21 21 21 22 23 23 22 21 21 22 23 24 24 24 23 22 22 21 21 20 19 17 15 12 11 9 8 7 6 5 5 4 3 2 1 2 2 2 2 2 2 1 2 2 2 1 1 1 2 3 4 6 7 7 7 8 9 9 10 11 12 13 14 14 15 15 15 15 16 16 17 18 18 19 19 20 20 21 21 22 22
17 16 16 17 18 20 21 21 22 22 24 24 24 25 26 26 27 26 25 24 23 22 21 20 20 18 17 14 12 10 9 8 7 6 6 5 4 3 3 3 3 3 3 3 3 3 3 3 2 2 2 1 2 3 4 5 6 6 7 7 8 8 10 11 12 12 13 14 14 14 14 15 15 16 16 17 18 18 19 19 20 20 21 21 22 23
16 16 16 17 18 20 22 23 23 24 25 26 27 27 28 28 29 28 26 25 24 22 21 19 18 17 15 13 11 9 8 8 7 7 6 6 5 4 4 4 4 4 4 4 4 3 3 3 3 2 2 2 3 4 5 5 6 6 6 6 7 8 10 11 12 12 13 13 13 14 14 15 15 16 17 17 18 18 19 19 20 21 21 22 22 23
15 15 16 16 17 19 22 24 25 26 27 28 29 29 29 29 29 29 27 25 24 22 20 18 16 15 13 11 10 9 9 8 8 8 7 7 6 6 6 6 6 5 5 5 4 4 4 3 3 2 2 3 4 4 5 5 5 5 6 6 7 9 10 11 11 12 13 13 13 13 14 15 15 16 16 17 17 18 19 19 20 21 21 22 22 23
14 16 17 17 18 19 22 24 26 28 28 29 29 29 29 29 29 28 27 25 24 22 20 18 16 14 13 12 11 11 10 10 9 9 8 7 7 7 7 7 7 7 6 5 5 4 4 3 3 3 3 3 4 5 5 5 5 5 6 6 8 9 10 11 11 12 12 13 13 13 14 15 15 16 16 17 17 18 19 19 20 21 21 22 22 23
14 17 19 19 20 21 22 23 26 28 30 30 29 29 29 29 28 27 26 25 23 22 20 18 17 15 15 15 14 14 13 12 11 10 10 9 9 8 8 8 8 7 7 6 5 5 4 3 3 3 3 4 4 5 5 5 5 5 6 7 8 9 10 10 11 12 12 12 13 13 14 15 15 16 16 17 17 18 19 19 20 21 21 22 22 23
14 18 20 21 22 22 22 22 24 27 30 31 30 29 28 28 27 26 25 24 22 21 20 19 18 17 16 16 16 15 14 13 13 12 12 12 11 10 10 9 9 8 7 6 5 4 4 4 4 4 4 4 5 4 4 4 5 6 7 7 8 9 10 11 11 12 12 12 13 13 14 15 15 16 16 17 17 18 19 19 20 21 21 22 22 23
17 18 18 20 21 21 20 20 23 26 28 30 31 30 29 28 27 25 24 22 21 20 19 19 19 18 17 17 16 15 14 13 13 13 13 13 13 12 11 11 10 9 7 6 5 5 4 4 4 4 5 4 4 4 4 4 5 6 7 8 8 9 10 11 11 12 12 12 13 13 14 15 15 16 16 17 17 18 19 19 20 21 21 22 22 23
20 19 18 18 20 21 19 19 21 25 26 27 28 29 30 29 27 25 23 21 20 19 19 19 20 20 19 18 17 16 15 15 14 13 13 13 13 12 12 11 10 9 8 7 6 5 4 4 4 5 5 4 4 4 4 5 6 6 7 8 8 9 10 11 11 12 12 12 13 14 14 15 15 15 16 17 17 18 19 19 20 20 21 21 22 23
18 19 18 17 19 21 20 20 22 24 25 25 25 26 28 28 27 24 21 19 19 20 19 19 19 20 19 18 17 16 15 15 14 13 13 12 11 11 11 10 9 8 7 6 5 4 3 3 4 5 5 4 4 4 5 5 6 7 7 8 8 9 10 11 11 12 12 13 13 14 14 15 15 15 16 17 17 18 19 19 20 20 21 21 22 23
16 17 17 16 17 18 19 20 22 24 24 24 21 19 20 24 25 24 22 20 19 20 20 19 19 19 19 18 17 15 14 13 13 13 12 11 10 10 9 8 7 6 5 4 3 2 2 3 4 5 4 4 4 4 5 6 6 7 7 8 8 9 10 11 11 12 12 13 13 14 14 14 15 15 16 16 17 18 19 19 20 20 21 21 22 22
18 18 17 16 16 17 18 19 20 21 22 21 18 16 16 20 23 24 23 22 21 21 21 20 19 19 18 17 16 14 13 13 12 12 12 11 10 10 9 8 7 6 4 3 3 2 3 4 4 5 4 4 4 4 5 6 7 7 7 8 9 9 10 11 11 12 12 13 13 14 14 15 15 16 16 16 17 18 19 20 20 20 20 21 22 22
17 17 16 14 14 15 17 19 18 17 17 18 19 20 22 24 24 24 23 21 21 21 21 20 19 17 16 15 14 14 13 13 13 13 12 12 11 9 8 8 6 5 4 4 4 5 5 6 5 5 4 4 4 4 4 5 6 7 7 8 9 10 11 11 12 12 12 13 13 14 14 15 15 16 16 17 17 18 19 20 20 20 21 21 22 22
15 15 13 12 12 14 16 18 18 18 18 20 22 24 25 25 25 24 23 21 21 21 21 19 17 16 16 15 14 13 13 13 14 14 13 12 10 9 8 7 6 6 5 6 7 8 7 7 7 6 6 6 5 5 5 5 6 7 7 8 9 10 11 11 11 12 12 13 13 14 14 15 15 16 16 17 17 18 18 20 20 20 21 21 22 22
16 15 13 12 12 14 17 19 19 18 19 21 23 25 25 24 24 24 24 23 22 22 20 16 13 12 12 14 14 14 14 14 15 15 14 12 10 8 7 7 7 8 8 9 10 10 9 8 7 7 7 7 6 5 5 5 6 6 7 8 9 9 10 11 11 11 12 12 13 14 14 15 15 16 16 17 17 18 18 19 20 21 21 21 21 22
16 15 14 13 13 15 18 19 19 18 20 22 24 26 26 26 26 26 25 25 23 20 18 15 10 6 6 11 14 15 15 15 15 15 14 13 11 9 7 7 9 11 11 11 11 10 9 8 7 7 6 6 5 5 5 6 6 6 7 8 9 9 10 11 11 11 12 12 13 14 14 15 15 16 16 17 17 18 18 19 20 20 21 21 21 21
16 16 15 14 14 16 18 18 18 18 21 23 24 25 26 26 27 27 27 26 23 19 17 15 12 8 7 8 13 16 16 16 16 15 14 13 12 9 8 8 10 12 12 12 11 10 9 8 8 8 6 5 5 5 6 6 6 7 7 8 9 9 10 10 11 11 12 12 13 13 14 15 15 16 16 17 17 18 18 19 20 20 21 21 21 21
17 18 17 16 16 17 19 20 20 21 23 24 25 25 24 24 25 26 26 25 24 21 19 15 13 12 11 11 15 19 18 16 16 15 14 13 12 11 9 10 12 13 13 12 12 11 10 9 8 7 6 5 5 5 6 6 6 7 7 8 9 9 10 10 11 12 12 13 13 13 14 14 15 15 16 17 17 18 18 19 20 20 21 21 21 21
18 19 20 19 19 19 19 21 23 26 27 29 29 27 25 25 25 25 24 24 24 23 21 17 15 14 15 17 20 22 19 17 16 16 15 13 13 12 11 12 14 14 14 13 12 10 9 8 7 6 6 5 5 5 5 6 6 6 7 8 9 10 10 11 11 12 12 13 13 13 14 14 15 15 16 16 17 17 18 19 20 20 21 21 21 20
20 21 24 24 23 21 20 24 28 31 32 33 31 29 27 26 25 25 25 24 23 21 20 16 15 17 20 22 23 23 20 18 17 16 13 12 12 13 13 13 14 15 14 12 11 10 8 6 5 5 6 6 6 5 5 5 6 6 7 8 9 10 10 11 11 12 12 13 13 13 13 14 14 15 16 16 17 17 18 19 20 20 21 21 21 20
21 22 24 25 26 26 25 27 30 32 33 34 32 30 28 27 25 25 26 25 23 20 18 16 17 20 24 26 25 23 21 18 18 15 11 9 10 13 14 15 15 14 13 12 11 10 8 6 4 2 3 5 5 6 5 5 5 6 7 8 9 10 10 11 11 12 12 12 13 13 13 14 14 15 16 16 17 17 18 19 20 20 21 21 20 20
21 23 24 27 28 28 27 27 28 30 32 33 32 30 30 29 28 27 27 26 24 23 21 21 22 23 24 25 25 23 21 18 16 14 11 8 9 13 15 15 15 14 13 11 10 9 8 6 4 2 1 2 4 5 5 5 5 6 6 7 8 10 10 11 11 12 12 12 12 13 13 14 14 15 16 16 17 18 18 19 20 20 21 20 20 19
23 24 25 26 27 26 24 24 26 28 30 30 29 28 28 29 29 29 29 28 27 26 24 24 23 22 22 24 24 23 21 19 16 12 9 8 10 14 16 15 14 13 12 11 10 8 7 5 4 4 4 3 2 3 4 5 5 6 6 7 8 9 10 11 11 11 12 12 12 13 13 14 15 15 16 16 17 18 19 19 20 20 20 20 19 18
24 24 24 24 24 24 24 24 25 27 30 31 29 28 27 27 27 28 28 28 27 26 25 23 20 18 18 20 21 21 21 19 17 12 6 6 10 15 16 16 14 13 12 10 9 8 6 5 4 4 5 5 4 2 3 4 5 6 6 7 8 8 9 10 10 11 11 12 12 13 13 14 15 15 16 16 17 18 19 19 20 20 20 20 18 17
23 22 21 20 21 23 23 23 24 26 29 31 31 30 29 28 28 27 26 26 26 25 24 20 15 13 15 16 17 18 20 19 18 15 8 7 11 15 16 16 14 13 11 9 7 6 5 4 3 3 3 3 3 2 2 4 5 5 6 7 8 8 9 10 10 10 10 11 11 12 13 14 14 15 15 16 17 18 18 19 20 20 20 19 18 17
20 19 17 17 18 20 21 22 22 25 28 30 32 32 31 31 29 27 25 26 27 26 22 15 11 11 12 13 14 17 20 20 19 16 11 9 11 15 16 16 15 13 11 9 7 5 4 3 3 2 2 1 1 1 3 4 5 5 6 7 7 8 9 10 10 10 10 10 11 12 12 13 14 15 15 16 17 17 18 19 19 20 20 19 18 17
15 15 14 14 16 18 19 20 21 23 26 29 30 32 32 32 30 26 24 27 29 27 21 16 12 10 10 11 14 18 21 21 20 18 14 9 10 14 18 18 16 14 13 10 8 6 5 5 5 4 4 3 3 3 3 4 5 6 6 7 8 9 9 10 10 10 10 11 11 12 13 13 14 15 15 16 17 17 18 19 19 20 19 19 19 19
11 11 11 13 14 16 18 19 21 23 25 27 29 30 31 31 30 29 30 32 31 26 20 18 16 13 12 13 15 18 19 21 21 19 16 11 10 14 19 19 18 15 13 10 7 6 6 6 6 6 5 4 3 2 3 4 5 5 6 7 8 9 10 11 11 11 11 11 11 12 13 14 14 15 15 16 17 17 18 19 20 20 20 20 20 20
14 14 15 15 16 17 19 20 21 22 24 26 28 29 30 30 30 31 33 35 33 27 21 18 17 17 15 14 11 10 13 19 22 21 18 13 12 15 20 20 19 17 13 7 5 4 4 5 6 6 5 3 2 1 2 3 4 5 6 7 8 9 11 12 12 12 12 12 12 13 13 14 15 15 15 16 17 18 18 19 20 20 21 21 21 22
20 21 21 21 21 21 21 22 22 23 24 25 27 28 29 29 28 29 32 36 35 30 25 21 20 20 19 13 7 4 6 18 24 23 20 16 14 17 22 21 20 18 13 7 4 3 2 4 6 6 5 4 2 1 1 3 4 5 6 7 8 9 11 12 13 14 14 13 13 14 14 15 15 15 15 16 17 17 18 19 19 20 21 22 23 23
24 24 24 24 24 24 24 25 25 25 26 26 27 28 28 27 27 29 32 34 34 32 29 26 23 22 21 15 9 5 7 19 25 25 21 18 17 20 23 23 21 18 14 9 6 4 2 3 5 6 6 4 2 1 1 3 4 5 6 7 8 9 11 12 13 14 15 15 14 14 14 15 15 16 16 16 17 17 18 18 19 19 21 22 23 25
26 25 25 25 25 25 26 27 27 27 27 27 27 27 27 26 27 29 31 33 32 31 30 29 26 23 21 18 13 9 10 19 26 27 23 19 17 20 23 24 22 18 14 10 7 5 4 3 4 5 6 5 3 1 1 2 4 5 6 7 8 9 10 12 13 15 15 15 15 15 15 15 15 16 16 17 17 18 18 18 18 18 19 21 23 24
26 26 26 26 26 26 26 26 26 26 26 26 26 26 26 27 28 29 31 31 30 29 29 29 29 26 23 18 13 10 10 19 25 27 24 21 17 19 26 26 23 19 15 10 8 6 5 5 6 5 5 5 3 1 0 2 3 5 6 7 8 10 11 12 14 15 16 16 15 15 15 16 16 17 17 17 18 18 18 18 18 18 18 19 21 23
26 26 25 25 25 25 25 24 24 25 25 25 26 26 27 28 29 30 30 29 28 27 26 27 27 27 26 23 18 13 13 19 24 26 24 22 19 20 26 27 25 21 17 12 9 6 5 7 8 7 5 5 3 2 1 1 3 4 5 6 8 9 11 12 14 15 16 16 16 16 16 16 17 17 18 18 18 18 18 18 17 17 17 18 19 20
25 24 24 23 23 23 23 23 23 24 25 26 26 27 28 29 30 30 29 28 27 26 25 25 25 24 23 21 19 17 17 20 23 25 24 22 20 21 24 26 25 22 18 15 11 9 8 9 10 9 7 5 3 2 1 1 2 3 3 5 7 8 10 12 14 15 17 17 17 16 16 17 18 18 18 18 18 18 18 17 17 17 17 18 18 20
23 22 22 22 22 22 22 23 23 24 25 26 27 28 30 30 30 29 28 27 25 25 24 24 23 21 19 16 14 13 15 18 22 24 23 21 19 19 23 24 23 21 17 15 15 14 14 12 10 8 6 4 3 2 2 1 1 2 2 4 6 8 9 11 13 15 16 17 17 17 17 17 18 19 19 18 18 18 18 18 18 19 19 19 20 21
21 20 20 21 22 22 23 23 23 25 26 27 28 29 30 30 29 28 26 25 24 23 22 22 20 19 16 13 10 9 12 16 21 23 23 21 18 17 20 22 22 19 15 13 15 17 17 13 9 6 5 4 3 3 4 4 3 3 2 3 6 8 10 12 14 15 16 17 17 17 17 17 18 19 19 19 19 19 20 20 20 21 21 21 22 22
20 20 20 21 22 22 23 23 24 25 27 27 28 29 29 28 27 26 25 23 22 21 20 19 18 16 14 11 9 9 12 17 21 22 22 20 17 15 17 19 20 18 14 13 14 16 16 13 10 7 6 5 4 4 4 5 5 5 4 4 6 9 11 13 14 15 16 17 17 17 17 18 18 18 19 19 20 21 22 22 23 23 24 25 25 25
20 20 20 21 22 24 24 25 26 27 28 28 28 28 28 27 26 24 23 22 20 19 19 18 17 15 13 11 10 12 15 18 21 21 19 17 15 14 15 17 18 17 16 15 14 14 12 11 10 9 8 6 4 4 4 6 7 7 7 6 5 7 11 14 15 15 16 17 17 18 18 18 18 18 18 19 19 21 22 22 23 23 24 26 27 28
21 21 21 23 24 25 26 27 28 28 28 28 28 27 26 25 25 23 22 21 20 18 18 17 16 15 14 13 13 15 17 19 19 17 15 14 13 12 14 16 17 18 18 17 15 13 11 11 11 10 10 8 7 6 5 6 7 8 9 8 6 6 9 13 15 15 15 16 17 17 17 17 17 17 18 18 19 19 20 21 22 23 23 24 25 26
22 22 23 25 26 27 28 28 29 28 28 28 27 26 25 25 25 24 24 23 21 20 19 19 19 20 19 18 17 17 17 16 15 13 12 11 11 12 14 16 17 18 18 17 16 14 12 12 12 12 11 9 7 6 6 6 7 8 9 9 7 5 6 12 15 15 15 15 16 16 16 17 16 16 16 17 18 18 19 20 21 22 22 23 23 24
23 24 26 27 28 29 29 29 29 28 28 27 26 25 25 24 25 25 25 25 24 24 23 23 23 24 24 22 20 19 17 17 16 15 15 14 14 15 16 17 17 17 17 17 17 16 14 13 12 11 10 9 7 6 6 6 7 8 9 9 10 8 5 10 14 15 14 15 15 16 16 16 15 14 14 15 16 17 18 19 20 21 22 23 23 23
25 27 28 29 30 30 30 29 29 28 27 26 25 24 23 23 23 24 25 26 27 27 26 26 26 26 26 24 23 22 22 21 21 21 21 20 20 20 20 19 18 17 16 17 17 17 16 14 13 11 10 9 8 7 6 6 7 8 9 9 10 10 8 10 12 14 14 15 15 15 15 15 14 13 12 14 16 17 18 19 20 21 22 23 23 24
29 29 29 28 29 29 29 28 28 28 27 26 25 24 23 23 23 25 27 27 27 27 27 27 26 23 21 21 22 23 23 23 23 24 24 24 23 23 23 22 20 19 17 16 16 16 15 15 13 12 10 9 8 7 6 7 8 9 9 8 8 9 10 11 13 14 15 15 15 15 15 14 14 13 13 14 16 18 19 20 21 22 23 23 24 25
29 29 28 27 27 27 28 29 29 28 27 25 25 24 24 24 25 26 28 29 28 27 27 27 25 21 19 19 21 22 22 22 23 24 24 24 24 24 23 22 21 19 18 17 15 14 14 14 13 12 10 9 8 7 7 8 9 9 9 8 9 10 11 12 13 14 15 15 15 15 14 14 14 15 16 16 17 18 19 20 21 22 23 24 25 25
30 29 28 27 26 26 27 28 28 28 26 25 24 24 25 25 26 27 28 29 28 26 24 24 23 22 20 20 21 22 22 22 23 23 24 24 24 23 23 21 20 18 17 16 15 14 13 13 12 11 10 9 8 8 8 9 9 9 9 9 10 11 12 13 13 14 14 14 15 15 15 15 16 17 17 17 18 18 19 19 20 21 22 23 25 26
30 30 29 28 27 26 26 27 28 28 27 26 25 25 25 26 27 28 28 28 27 24 22 21 21 21 21 21 22 23 23 23 24 24 24 24 24 23 22 21 20 18 17 16 15 14 13 12 12 11 10 10 9 8 8 9 9 9 9 9 11 12 13 13 13 13 14 14 14 15 16 17 17 18 18 19 19 19 19 20 20 21 22 23 25 26
30 30 30 29 27 26 25 26 27 28 27 26 26 25 24 24 25 26 26 26 24 22 21 21 21 21 20 20 21 22 23 24 25 26 25 25 24 23 22 21 20 19 18 17 16 15 14 13 12 11 11 10 10 9 9 9 9 9 9 11 12 13 13 13 12 12 13 13 13 14 14 15 16 17 18 19 19 19 20 21 21 22 22 23 25 26
29 30 30 29 28 26 25 26 27 27 27 27 27 25 24 23 23 23 24 24 22 21 21 22 23 22 21 21 21 22 23 25 25 25 25 25 24 24 23 22 21 20 19 18 16 14 13 12 11 11 11 11 10 9 9 9 9 9 10 12 13 13 13 12 12 12 12 12 12 12 12 13 15 17 18 18 19 19 20 22 23 23 24 25 26 27
28 29 30 29 28 27 26 26 26 27 27 27 27 26 24 23 22 22 22 22 21 21 21 23 24 23 22 22 22 23 25 26 26 25 25 25 25 24 24 23 22 21 18 15 12 10 9 8 7 7 9 10 10 9 8 8 8 9 11 12 13 13 12 11 11 11 11 10 10 10 11 12 14 16 17 18 18 19 20 22 23 24 25 26 27 27
Wind_Direction
165 169 172 176 177 177 179 185 185 182 179 180 178 174 167 161 158 159 161 163 166 169 170 173 175 177 177 176 176 177 176 177 177 178 181 183 185 186 186 183 51 27 32 46 62 74 79 75 74 78 81 80 61 28 0 349 346 347 349 352 353 351 350 350 350 349 347 345 344 343 342 342 342 343 343 343 341 340 339 337 336 336 336 336 335 335
151 154 155 163 168 167 167 175 181 180 175 172 169 166 162 159 157 157 159 162 166 169 171 173 175 176 174 171 170 170 172 172 172 172 170 169 167 162 150 117 91 79 83 89 92 91 85 81 76 78 82 71 37 11 356 351 350 352 354 355 353 351 350 350 349 348 346 345 344 343 343 343 344 345 345 344 342 340 338 337 337 336 336 337 336 335
140 142 145 154 159 159 158 164 172 175 171 166 163 162 161 158 156 156 158 160 164 168 170 171 173 173 171 166 165 166 167 167 167 164 160 156 151 141 123 109 100 101 105 108 107 103 96 91 87 81 72 51 25 5 356 354 355 356 357 356 353 351 350 350 348 347 346 345 345 345 345 346 346 346 345 343 341 340 338 338 337 337 337 338 337 337
136 136 140 148 154 155 155 158 161 163 162 159 157 157 159 156 155 155 158 160 161 163 165 168 171 171 168 164 159 159 160 159 157 153 149 143 136 125 115 111 112 115 117 119 116 111 106 100 93 81 63 37 14 2 359 359 0 1 360 355 353 351 350 349 348 347 347 346 346 347 348 348 348 347 345 342 341 339 339 338 338 338 339 339 338 338
135 135 138 141 143 146 150 154 154 154 152 150 150 152 154 153 152 153 156 159 159 158 159 162 166 166 164 156 149 148 150 150 148 145 140 135 128 121 117 119 122 124 125 124 120 114 109 104 93 75 48 24 11 7 7 8 7 4 360 355 353 351 350 349 348 348 348 348 349 349 350 349 348 346 344 342 340 339 339 339 339 339 340 339 339 339
137 139 141 140 138 139 143 147 149 149 146 145 146 148 148 148 149 150 152 154 155 154 154 155 156 154 149 142 139 140 142 142 140 137 133 129 125 123 123 126 129 129 129 129 123 116 110 100 85 61 40 26 20 19 18 17 13 5 358 354 353 351 350 350 350 350 350 350 351 351 350 349 347 345 343 341 340 340 339 339 339 340 340 340 340 339
140 142 145 144 142 140 141 143 147 149 147 143 142 142 142 144 145 146 147 150 151 151 151 151 151 149 145 143 143 143 142 140 137 132 127 123 122 124 127 130 132 133 133 132 127 119 109 94 75 55 42 36 34 32 28 22 13 4 358 355 352 351 352 352 352 352 351 352 353 352 350 348 346 344 342 341 341 340 340 340 340 340 341 340 340 340
135 141 144 142 141 140 142 144 148 151 150 146 141 137 136 137 138 140 143 146 148 149 148 148 149 149 149 150 152 152 150 146 141 136 131 127 125 125 127 130 133 134 134 134 131 123 108 90 72 59 51 48 43 38 30 20 11 4 358 353 352 353 353 354 354 353 353 353 353 352 350 347 345 343 341 341 341 341 341 340 341 341 341 341 341 340
135 138 142 143 142 142 144 148 151 152 152 150 146 141 136 133 133 134 136 138 142 146 148 147 146 146 148 151 153 154 151 148 145 142 141 139 138 137 137 136 136 136 136 134 132 125 110 92 78 68 61 55 48 40 28 16 9 4 360 357 356 356 355 355 355 354 353 354 353 351 348 346 343 342 341 341 341 341 341 341 341 341 341 341 341 341
140 142 145 148 150 150 149 150 151 152 152 151 149 147 144 138 134 130 129 130 135 142 148 148 145 143 146 150 153 152 150 148 147 148 150 151 153 154 154 152 149 147 145 143 139 131 117 103 91 82 73 60 47 34 22 13 7 4 3 1 359 357 356 356 355 354 354 353 351 349 346 344 342 341 341 341 341 341 341 342 342 341 341 341 341 341
141 146 147 151 155 155 153 151 150 150 150 147 145 145 147 146 142 137 130 129 133 139 144 148 147 146 146 150 155 158 156 154 154 156 158 161 164 167 169 167 165 164 162 162 158 149 137 123 111 100 86 68 47 30 18 14 10 8 5 3 359 356 355 355 355 354 354 352 349 347 344 343 341 341 341 341 341 341 342 342 342 341 341 341 341 341
144 147 148 150 152 151 149 148 148 149 149 144 138 137 142 148 150 147 140 136 136 138 141 145 149 151 152 153 157 162 164 161 159 159 161 164 168 173 175 176 175 176 179 184 189 182 161 145 134 120 103 81 55 33 22 18 15 11 7 2 357 355 355 355 355 355 353 350 347 345 343 342 341 341 341 341 341 341 341 342 341 341 341 341 341 341
151 152 151 150 150 149 147 147 147 149 150 149 146 146 150 152 153 151 145 142 141 142 143 143 146 151 156 159 161 164 166 163 160 159 159 160 164 169 173 174 176 179 187 195 191 168 144 140 136 128 113 90 61 40 30 24 18 11 6 1 357 354 355 356 356 355 352 348 346 344 342 341 341 341 341 341 341 341 341 342 341 341 341 341 341 341
151 152 150 151 154 156 156 155 156 159 162 163 162 160 158 155 153 149 142 138 140 144 144 140 140 145 153 159 164 167 168 164 160 157 157 157 158 163 168 170 171 175 183 175 154 137 128 124 118 109 93 73 52 39 32 26 18 10 4 0 357 355 355 356 356 353 350 347 344 343 341 341 341 341 341 342 342 342 342 342 342 342 341 341 340 340
152 152 154 159 165 168 168 167 168 170 171 169 165 160 156 153 152 148 141 137 138 141 140 136 135 140 148 156 163 169 170 167 161 156 153 152 153 157 163 166 166 164 165 152 138 129 123 115 104 90 74 58 44 33 27 23 15 7 2 358 357 356 355 355 354 351 347 345 343 342 341 341 342 342 342 342 342 342 342 342 342 342 341 340 340 339
159 159 163 168 174 177 178 177 175 172 169 167 163 159 154 152 153 152 147 144 143 143 139 133 129 134 147 157 163 168 170 167 162 157 150 147 148 151 157 163 161 156 153 146 136 129 124 116 103 89 74 60 47 33 23 17 11 4 358 357 357 357 355 354 351 348 346 344 343 342 341 342 342 343 343 342 342 342 342 342 342 342 341 339 339 339
163 166 169 172 177 182 184 181 177 172 167 165 164 163 161 159 159 157 154 151 150 150 150 147 144 143 154 163 167 170 173 168 163 158 150 144 143 146 150 163 159 153 151 145 138 131 125 113 98 82 72 60 47 33 22 12 6 1 359 358 358 357 354 351 348 346 344 343 342 342 342 343 343 343 343 342 342 342 342 342 342 341 340 339 338 338
168 171 173 175 179 183 184 182 179 173 169 166 165 166 166 165 163 162 159 158 157 159 161 162 161 159 159 169 170 170 174 173 166 157 148 142 141 144 148 161 161 156 150 144 139 133 123 107 85 68 61 56 46 34 23 12 6 2 1 0 358 355 352 349 346 344 343 343 343 342 343 343 343 343 343 343 342 342 342 342 342 341 339 338 338 337
173 176 178 180 182 183 183 182 180 177 173 171 168 166 164 164 165 165 165 165 166 166 166 166 165 162 158 165 168 169 172 176 171 157 144 138 141 147 152 161 162 159 151 144 139 134 126 114 96 76 59 49 40 33 24 11 4 3 4 1 357 354 350 347 345 344 343 343 343 343 344 344 344 344 344 343 342 343 343 343 342 340 339 337 337 337
177 182 184 185 184 183 184 187 188 186 182 179 174 169 165 166 168 169 170 172 172 171 169 166 162 158 156 158 162 165 170 176 172 158 141 137 143 150 157 164 164 158 152 146 143 141 136 128 113 91 65 43 30 25 21 11 5 3 4 1 357 352 349 346 345 344 344 344 345 345 345 344 344 344 343 343 342 343 343 343 341 339 338 337 336 335
182 190 196 197 192 189 191 196 197 195 191 184 178 172 169 169 171 172 174 173 172 169 166 161 158 157 157 156 158 163 169 177 172 159 145 141 146 153 161 167 167 162 154 150 150 152 150 146 128 95 66 42 25 16 17 12 5 1 2 359 355 351 348 346 345 345 345 346 346 346 346 346 345 344 343 342 342 343 343 342 340 338 338 336 335 334
195 202 209 210 207 204 204 205 203 199 195 187 180 175 174 173 173 174 174 172 168 164 160 156 157 160 160 158 159 163 169 180 180 170 154 141 148 159 165 169 170 165 158 155 158 163 166 167 160 122 68 43 25 13 10 9 4 0 358 355 352 349 347 346 345 345 346 347 348 347 347 346 345 344 343 343 343 343 342 341 339 338 337 336 335 334
214 218 221 218 215 213 211 208 203 198 194 190 185 183 181 179 176 174 172 169 165 161 157 155 156 158 159 159 159 163 169 177 183 179 159 141 151 165 169 172 172 169 164 163 167 173 180 189 203 232 286 359 13 10 5 5 2 359 356 353 350 348 346 346 346 347 348 348 349 349 348 347 346 345 344 343 343 343 342 341 339 338 336 335 334 332
225 226 225 220 216 213 210 206 200 194 190 188 187 186 184 181 178 173 170 168 164 158 153 149 145 146 151 155 159 163 169 175 179 176 159 148 157 167 171 174 173 170 170 173 179 186 195 208 228 253 272 275 314 357 3 3 0 357 355 353 350 348 347 348 348 349 350 351 351 350 349 347 346 345 345 344 344 343 342 341 339 338 336 334 332 330
225 226 226 223 218 213 210 207 201 194 188 185 184 182 180 176 173 169 166 163 158 151 144 137 132 134 144 153 159 165 171 175 178 176 159 145 157 166 171 176 176 172 171 179 188 197 207 221 239 257 267 263 268 303 355 5 2 358 355 353 351 349 349 350 351 352 353 353 352 351 349 348 347 346 346 345 345 344 343 341 340 338 336 333 332 331
224 227 228 226 220 215 212 210 205 199 193 190 187 183 179 173 166 161 156 153 150 146 139 132 131 138 148 156 164 170 174 177 181 184 180 153 153 162 171 177 178 175 171 176 187 197 206 216 228 243 251 251 260 291 355 11 9 2 358 356 354 354 354 354 354 355 355 354 352 350 349 348 347 347 347 346 346 344 343 342 340 338 336 334 334 333
224 225 226 223 217 212 210 208 204 201 198 196 193 189 183 174 163 154 150 153 153 150 143 139 139 144 150 160 170 176 177 180 184 190 195 171 153 157 168 173 175 171 164 161 168 176 175 171 167 164 159 159 123 34 24 21 16 9 3 2 2 1 1 360 359 359 357 355 353 351 349 349 349 349 348 348 346 345 344 343 341 340 338 338 337 336
220 219 217 212 207 204 203 201 200 198 197 196 195 193 188 178 166 157 158 162 161 156 149 148 148 150 156 168 177 180 181 184 188 193 198 188 159 155 166 169 169 165 151 142 142 148 147 145 142 139 135 122 100 65 38 23 15 10 7 7 10 11 11 8 6 4 1 357 354 353 352 352 352 351 350 349 348 346 345 344 343 342 342 341 340 339
192 193 192 190 188 188 190 190 190 191 191 192 192 191 190 184 177 171 170 168 164 158 154 153 154 155 158 163 171 179 185 190 193 196 198 186 162 157 164 163 163 159 146 133 127 132 139 143 144 142 137 126 104 69 35 18 11 10 10 13 17 21 21 18 15 11 7 3 0 358 358 357 356 355 353 351 350 348 347 347 346 344 344 343 342 342
152 153 155 158 163 168 172 175 177 179 182 185 185 186 188 189 187 182 177 172 166 161 156 154 153 152 150 149 155 175 195 199 198 197 197 182 161 157 161 159 158 157 148 132 113 112 132 150 154 152 148 138 119 73 24 7 5 8 12 16 21 24 26 24 21 18 14 11 7 5 3 3 1 359 356 353 352 351 351 350 348 346 345 344 344 344
144 143 142 145 150 155 159 161 164 168 173 177 180 182 185 188 189 186 179 173 169 165 158 155 153 153 151 147 144 165 200 202 199 197 196 188 171 161 163 159 159 159 156 143 122 117 137 169 168 163 158 154 145 96 10 359 1 7 13 18 23 26 26 24 21 18 17 15 12 9 7 5 4 3 360 357 354 353 353 353 351 348 345 345 345 345
144 143 142 144 147 151 154 157 160 163 168 173 177 180 182 185 185 182 176 174 171 167 161 156 154 155 157 157 158 165 184 195 195 194 193 187 176 168 168 164 162 162 161 152 137 132 143 175 175 170 164 163 162 142 8 358 0 5 13 19 23 26 25 23 20 18 17 15 13 11 9 7 6 5 3 1 359 357 356 355 354 351 348 346 345 344
145 144 145 147 150 152 155 157 159 162 166 169 172 175 177 178 177 175 172 171 171 169 163 157 154 155 158 159 158 161 176 186 190 192 192 187 175 169 171 168 165 163 162 153 140 128 126 141 158 166 166 166 167 168 357 355 359 4 12 17 21 23 23 21 19 17 17 15 13 12 10 9 8 7 6 5 3 1 359 357 356 354 351 349 347 345
144 145 146 148 150 152 154 156 157 159 161 163 165 167 169 169 168 167 167 168 169 169 166 161 158 158 160 160 158 157 167 181 187 189 190 189 180 170 171 170 168 165 162 153 141 129 121 129 137 145 155 157 158 160 348 352 356 2 9 16 18 18 18 17 16 16 16 15 14 13 12 11 10 9 8 7 5 3 1 360 359 359 357 355 351 349
143 144 146 147 147 148 149 150 151 152 153 154 156 159 161 161 162 162 163 165 166 167 166 164 163 164 166 167 167 165 168 179 185 188 189 191 186 175 171 172 171 168 162 155 146 138 128 134 138 139 142 146 142 131 88 356 349 355 5 16 20 18 16 14 13 14 14 15 15 14 13 13 12 11 10 9 7 5 4 4 5 6 6 4 1 358
141 141 142 143 143 142 142 143 144 144 145 147 150 153 156 157 158 160 161 163 164 164 164 164 165 167 171 175 177 176 174 179 184 186 188 192 190 181 173 173 174 172 165 158 152 146 140 140 142 142 142 145 139 115 83 24 340 344 3 20 24 23 19 15 13 13 13 14 14 14 14 13 13 12 11 11 10 10 11 13 14 15 15 14 12 10
139 138 140 141 140 139 139 140 141 141 141 143 147 150 153 154 156 158 160 162 163 163 164 165 166 169 172 178 185 186 182 183 184 185 186 190 193 188 179 175 175 174 169 162 156 150 144 141 142 144 144 147 142 106 58 51 12 349 5 25 31 30 25 20 16 14 14 14 14 15 15 14 14 13 13 13 15 18 21 23 23 21 19 18 16 15
137 138 140 141 141 140 138 138 139 140 141 143 145 148 151 153 154 156 158 160 162 163 164 165 167 169 172 176 185 197 197 189 184 182 184 187 193 194 185 175 173 174 174 170 163 155 146 140 137 138 143 141 129 94 58 46 35 32 37 44 42 36 31 25 20 17 15 15 15 16 17 17 17 17 17 19 22 25 27 28 26 22 18 14 13 13
138 139 140 141 141 140 139 138 139 141 143 145 147 148 150 151 153 154 156 158 159 161 163 165 166 167 170 174 183 193 193 185 180 178 181 183 189 192 188 177 171 169 170 168 164 156 147 142 141 142 144 139 122 91 63 45 35 35 47 63 56 44 36 30 25 20 17 17 17 19 20 21 21 22 23 25 27 27 27 26 23 20 16 11 8 7
141 141 141 142 143 142 141 141 142 143 144 145 146 147 148 149 150 151 152 153 154 156 159 161 162 162 164 168 172 175 175 174 174 175 179 182 185 187 186 179 170 163 162 160 157 154 149 145 142 140 136 129 116 92 63 44 37 35 38 41 45 42 36 32 27 23 21 21 21 21 22 24 26 28 29 31 31 29 26 23 22 20 17 13 8 5
142 141 142 143 144 144 143 144 144 144 144 144 144 144 145 146 145 144 145 145 146 147 150 151 150 148 148 150 154 158 161 164 168 171 175 178 177 176 177 175 167 159 157 154 153 151 148 143 137 132 127 119 109 93 73 53 42 37 34 27 28 37 39 33 29 26 25 26 27 27 26 27 29 32 34 34 34 31 28 24 21 20 17 14 11 9
142 142 143 144 143 143 142 143 143 143 143 143 142 142 143 145 144 141 139 136 135 136 139 139 136 131 128 131 136 143 148 152 154 156 157 157 157 160 164 164 161 157 155 151 148 144 140 136 131 127 123 117 110 99 83 66 52 43 37 31 29 32 40 32 32 32 29 31 32 33 32 31 32 33 35 35 34 33 31 28 24 20 16 13 12 13
144 144 144 144 143 142 142 141 141 141 142 142 141 141 143 145 144 141 138 133 131 131 134 134 132 128 121 118 120 126 130 132 133 132 132 135 141 147 152 154 154 155 154 149 142 136 133 129 126 122 118 113 109 103 93 75 60 51 44 38 37 36 28 22 29 36 38 39 39 38 36 35 34 35 35 34 33 33 31 29 25 20 15 12 12 14
143 143 143 143 142 142 141 140 139 140 141 140 139 139 142 144 144 141 137 133 131 131 132 132 131 127 120 117 117 119 122 126 129 130 132 135 138 142 145 147 148 150 151 145 137 132 130 126 121 116 111 107 104 101 93 79 66 57 50 46 46 46 37 27 30 37 42 45 45 42 39 36 35 35 37 37 35 32 30 26 23 19 16 13 14 16
142 142 142 141 141 140 138 138 139 140 140 139 138 139 141 144 145 142 138 134 133 132 132 132 130 125 118 119 121 122 124 127 131 134 136 138 141 143 144 145 145 145 144 139 133 130 127 122 118 113 107 101 98 96 91 79 68 60 53 52 52 50 45 41 41 41 41 44 45 42 39 35 33 34 37 38 36 33 29 25 22 19 17 15 16 17
141 141 142 142 142 140 139 139 140 140 138 138 138 139 142 144 145 143 140 138 135 134 134 135 133 128 126 128 128 128 127 129 132 134 137 139 141 143 144 143 142 141 137 133 129 126 122 117 114 110 106 99 94 89 82 75 67 59 52 55 58 58 56 53 50 48 45 42 40 38 36 32 30 31 33 34 34 33 31 28 24 22 19 18 17 18
143 143 144 144 143 141 140 140 140 138 136 136 138 140 143 145 144 143 141 139 137 136 136 136 134 133 133 135 136 135 134 134 135 136 137 138 140 141 141 139 138 135 132 128 125 122 118 114 110 105 99 94 88 82 76 72 65 58 53 57 60 61 59 57 55 53 48 42 36 32 29 25 23 24 27 30 32 32 31 30 28 25 22 20 18 18
146 146 146 145 143 141 140 140 139 138 136 136 138 141 143 145 144 142 140 140 139 138 137 136 134 133 134 138 139 140 139 139 139 139 139 139 140 139 138 136 134 131 128 125 121 117 111 105 99 95 90 85 80 73 68 69 66 60 57 62 64 63 60 59 58 54 49 42 35 29 24 19 17 17 19 23 26 28 29 30 29 27 24 21 20 18
147 147 147 146 144 142 141 140 140 139 137 137 138 139 141 144 144 142 141 140 140 140 140 138 136 135 135 138 140 141 141 142 141 141 141 141 140 139 137 135 133 130 127 123 119 113 105 97 88 80 76 73 70 64 58 61 62 63 66 69 67 64 59 57 55 52 46 40 35 29 23 20 18 18 18 20 20 22 24 27 27 26 23 22 21 20
148 148 147 146 145 144 143 142 141 139 138 138 138 138 140 142 143 143 142 142 142 143 143 143 141 139 138 140 142 143 143 143 143 142 142 142 142 140 139 137 136 133 128 123 119 114 108 100 89 76 66 60 56 52 47 47 55 66 73 72 68 63 57 52 49 46 41 36 31 28 24 23 23 23 24 21 19 19 21 23 24 23 20 20 20 21
148 148 148 146 145 144 143 142 141 140 139 139 139 139 140 141 142 142 143 143 144 145 146 145 144 142 141 142 144 146 146 146 145 144 144 144 144 143 142 141 140 136 130 127 123 119 112 104 93 78 67 54 48 45 41 42 53 67 73 71 66 60 53 47 44 41 36 30 26 25 25 27 29 29 28 26 22 19 18 18 19 19 18 18 18 20
Height
723 725 727 728 729 731 733 734 736 737 740 742 744 746 748 750 751 753 754 756 757 758 759 760 761 763 764 765 766 767 768 768 769 770 771 771 772 773 773 773 774 775 775 776 776 776 776 776 777 777 777 777 776 776 776 776 775 775 775 774 774 774 773 773 773 773 772 772 771 771 770 769 768 767 766 765 764 763 762 760 759 758 757 755 754 753
723 725 726 728 729 730 732 734 735 737 738 741 743 745 747 748 750 752 754 755 756 758 758 760 761 762 763 765 766 767 767 768 769 769 770 771 771 772 773 773 774 774 775 775 776 776 776 776 776 776 776 776 776 776 775 775 775 774 774 774 774 773 773 773 773 772 772 771 771 770 769 768 767 766 765 764 763 762 761 760 759 758 756 755 753 752
723 724 726 728 729 730 732 734 735 737 738 740 742 744 745 747 749 751 753 755 756 757 758 759 761 762 763 764 765 766 767 768 768 768 769 770 770 771 772 773 773 774 774 775 775 776 776 776 776 776 776 776 775 775 775 774 774 774 774 773 773 773 773 773 772 772 771 770 770 769 768 768 767 766 765 764 763 762 761 759 758 757 756 754 753 751
722 724 726 728 729 731 732 734 735 737 738 739 741 743 744 746 748 750 752 754 755 757 758 760 761 762 763 764 765 766 767 767 768 768 768 769 770 771 772 772 773 774 774 775 775 775 776 776 776 776 776 775 775 774 774 774 774 773 773 773 773 773 773 772 772 771 770 770 769 769 768 767 766 765 764 764 763 762 760 759 758 757 755 754 752 751
723 724 726 728 730 732 733 734 735 737 738 739 741 743 744 745 747 749 751 753 755 757 758 760 761 763 763 764 765 766 766 767 767 767 768 768 769 770 771 772 773 773 774 774 775 775 775 776 776 776 775 775 774 774 774 773 773 773 773 773 773 773 772 772 771 770 770 769 769 768 768 767 766 765 764 763 762 761 760 758 757 756 755 753 752 750
723 725 726 729 731 733 734 735 736 736 738 739 741 742 743 745 747 749 751 753 755 756 758 760 761 763 763 764 765 766 766 767 767 767 768 768 769 770 771 772 773 773 773 774 774 775 775 775 775 775 775 775 774 774 773 773 773 773 773 773 773 772 772 771 771 770 769 769 768 768 767 766 766 765 764 763 762 761 759 758 757 756 754 753 751 750
723 725 727 729 731 733 735 736 736 736 736 738 740 742 743 745 747 749 751 753 754 756 758 759 761 762 763 764 765 766 766 767 767 767 768 768 769 770 771 772 772 773 773 773 774 774 775 775 775 775 775 774 774 773 773 773 773 773 773 773 773 772 772 771 770 770 769 769 768 768 767 766 766 765 764 763 762 760 759 758 756 755 754 752 751 749
724 727 728 730 732 733 735 736 737 736 736 736 738 740 743 745 747 749 751 753 754 756 758 759 760 762 763 763 764 765 766 766 767 767 768 768 769 770 771 772 772 772 772 773 773 773 774 774 774 774 774 774 774 773 773 773 773 773 773 773 772 772 771 770 770 769 769 768 768 767 767 766 765 765 763 762 761 760 758 757 756 755 753 752 750 749
724 727 730 731 732 733 735 736 737 737 737 736 737 738 741 744 747 749 751 753 755 757 758 759 760 762 763 763 764 765 766 766 767 767 768 768 769 770 771 771 772 772 772 772 772 773 773 773 774 774 774 773 773 773 773 773 773 773 773 773 772 772 771 770 770 769 769 768 768 767 767 766 765 764 763 762 761 759 758 757 756 754 753 751 750 748
724 727 730 732 733 733 734 735 736 737 737 737 737 737 739 742 745 749 752 754 756 757 758 760 761 762 763 764 765 765 766 766 767 767 768 768 769 770 770 770 771 771 771 771 771 772 772 773 773 773 773 773 773 773 773 774 774 774 773 773 772 772 771 770 769 769 768 768 768 767 767 766 765 764 763 762 760 759 758 757 755 754 753 751 749 748
726 727 729 731 733 733 734 735 736 737 737 738 738 739 740 741 743 747 751 754 756 758 759 760 761 762 763 764 765 765 765 766 766 767 768 768 769 769 770 770 770 770 770 770 771 771 771 772 772 773 773 773 773 773 773 774 774 774 773 773 772 771 771 770 769 769 768 768 768 767 766 766 765 764 763 761 760 759 758 756 755 753 752 750 749 748
726 728 729 731 733 734 735 735 736 736 736 737 739 741 743 743 743 745 748 752 755 757 759 760 761 763 763 764 765 765 766 766 766 767 767 768 769 769 769 769 769 769 769 770 770 770 771 771 771 772 772 772 773 773 773 774 774 774 773 773 772 771 770 770 769 769 768 768 768 767 766 765 764 763 762 761 760 758 757 756 755 753 752 750 748 747
724 727 729 731 732 733 734 735 736 736 736 736 737 739 742 743 744 745 748 751 754 756 758 759 761 763 763 764 765 766 766 766 767 767 768 768 769 769 769 769 769 769 769 769 770 770 770 771 771 771 771 772 772 773 773 774 774 774 773 773 772 771 770 769 769 768 768 768 767 767 766 765 764 763 762 760 759 758 757 756 754 753 751 750 748 747
724 727 729 731 732 733 733 733 733 734 734 734 735 736 738 741 743 745 748 751 754 756 757 759 761 763 764 765 765 766 766 766 767 767 768 768 769 769 769 769 769 769 769 769 770 770 770 770 770 771 771 771 772 772 773 773 773 773 773 773 772 771 770 769 769 768 768 768 767 767 766 765 764 763 761 760 759 758 757 755 754 753 751 749 748 746
723 726 728 730 731 732 732 731 731 731 732 733 734 736 738 740 742 744 747 750 753 756 757 759 761 763 764 765 765 766 766 766 766 767 768 768 769 769 769 769 769 769 769 769 770 770 770 770 770 771 771 771 772 772 772 773 773 773 773 772 772 771 770 769 769 768 768 768 767 766 765 764 763 762 761 760 758 758 756 755 754 752 751 749 747 746
722 724 726 728 729 730 730 729 730 730 731 732 733 735 737 740 742 743 745 748 751 754 756 758 761 763 764 765 765 766 766 766 766 767 767 768 768 769 769 769 769 769 769 770 770 770 770 770 770 771 771 771 772 772 772 772 773 773 773 772 771 771 770 769 769 769 768 768 767 766 765 764 763 762 761 760 758 757 756 755 753 752 750 748 747 745
720 722 724 726 728 728 728 729 729 730 730 732 733 734 735 737 739 741 743 745 748 751 754 756 758 762 764 765 765 765 766 766 766 767 767 768 768 768 769 769 769 769 770 770 770 770 770 770 770 771 771 772 772 772 772 772 772 773 772 772 771 771 770 770 769 769 768 768 767 766 765 764 763 762 761 759 758 757 756 754 753 752 750 748 747 745
718 720 722 724 725 726 727 728 729 729 730 731 732 734 735 736 738 739 741 743 746 748 750 752 754 756 759 763 764 764 765 766 766 766 767 768 768 768 769 769 769 770 770 770 770 770 770 770 771 771 772 772 772 772 772 772 772 772 772 772 771 771 770 770 769 769 768 767 766 765 764 763 762 761 760 759 758 757 756 754 753 751 749 748 746 744
716 718 720 721 723 724 725 726 727 728 728 729 731 733 735 736 738 739 740 742 743 744 747 749 751 752 755 758 760 762 764 765 765 766 767 767 768 768 769 769 770 770 770 770 770 770 770 770 771 772 772 772 772 772 772 772 772 772 772 772 771 771 770 770 769 768 768 767 766 765 764 763 762 761 760 759 758 757 755 754 753 751 749 747 746 744
714 716 717 718 720 722 723 724 724 725 725 726 728 730 732 734 737 738 739 741 742 743 744 746 748 750 752 755 758 761 763 764 765 765 766 767 768 768 769 770 770 770 770 770 770 770 770 771 771 771 772 772 772 772 772 772 772 772 772 772 771 771 770 770 769 768 768 767 766 765 764 763 762 761 760 759 758 756 755 753 752 750 749 747 745 744
712 713 714 715 717 718 720 720 721 721 722 723 726 728 730 732 734 736 738 739 741 743 744 746 747 748 750 753 757 759 761 763 763 764 765 766 768 768 769 770 770 770 770 770 770 770 771 771 771 771 772 772 772 772 772 772 772 772 772 772 771 771 770 770 769 768 767 766 765 764 763 763 762 761 760 758 757 756 755 753 752 750 748 747 745 743
710 710 711 712 713 714 715 716 717 718 720 721 723 725 726 728 731 733 735 737 739 742 743 745 746 748 750 752 755 758 760 762 762 762 763 766 767 768 768 769 770 770 770 770 770 771 771 771 771 771 771 772 772 772 772 772 772 772 772 772 771 771 770 769 768 768 767 766 765 764 763 762 762 761 759 758 757 755 754 753 751 749 748 746 744 743
707 707 708 709 710 711 712 713 715 717 718 720 721 722 723 724 727 729 732 735 738 740 742 744 746 748 750 753 755 758 759 761 761 762 762 764 766 767 768 769 769 770 770 770 770 771 771 771 771 771 772 772 772 772 772 772 772 772 772 772 771 771 770 769 768 767 766 765 765 764 763 762 761 760 759 758 757 755 753 752 751 749 747 745 744 742
705 705 706 707 708 710 712 713 714 716 718 720 722 723 723 725 726 728 731 734 736 738 741 744 747 750 753 754 756 758 759 760 761 761 762 763 765 766 767 768 769 769 769 770 770 771 771 771 771 771 772 772 772 773 772 772 772 772 772 772 771 771 770 769 768 767 766 765 765 764 763 762 761 760 759 758 756 755 753 752 750 748 747 745 743 742
704 705 706 707 708 710 711 712 713 715 717 719 720 722 723 725 727 729 732 734 737 739 742 745 748 752 754 755 757 758 758 759 760 761 761 763 764 766 767 768 768 769 769 770 770 771 771 771 771 771 772 772 772 772 772 772 772 772 771 771 771 770 770 769 768 767 766 765 765 764 763 762 761 760 758 757 756 754 753 751 750 748 746 744 743 742
704 705 706 707 708 709 710 712 713 714 715 716 718 719 722 724 727 730 733 736 738 740 743 746 749 752 753 755 756 757 758 758 759 760 760 762 763 765 767 768 768 768 769 770 770 771 771 771 771 771 772 772 772 772 772 772 772 772 771 771 770 770 769 768 768 767 766 765 765 764 763 762 761 760 758 757 755 754 753 751 749 748 746 744 743 741
704 705 706 707 708 709 710 711 712 713 714 715 716 718 719 722 726 729 733 735 737 739 742 745 749 752 754 755 756 756 757 757 758 759 760 761 762 764 766 767 768 768 769 769 770 771 771 771 771 772 772 772 772 772 772 772 772 772 771 771 770 769 769 768 767 766 766 765 764 764 763 762 760 759 758 756 755 754 752 751 749 747 746 744 742 741
704 705 706 707 708 709 710 711 712 713 714 715 716 717 718 720 723 727 730 732 734 737 739 742 746 749 752 754 754 755 756 756 758 758 760 761 762 763 765 766 767 768 768 769 770 771 771 771 772 772 772 772 772 772 772 772 772 772 771 771 770 769 768 768 767 766 765 765 764 763 762 761 760 758 757 756 755 753 752 750 748 747 745 744 742 741
704 705 706 707 708 709 710 711 712 713 714 715 716 717 718 718 720 722 725 728 732 735 738 740 742 745 748 751 753 754 755 756 757 758 759 760 761 763 764 765 766 767 768 769 771 771 772 772 772 772 772 773 773 773 772 772 772 772 771 771 770 769 768 768 767 766 765 765 764 763 762 761 759 758 757 756 754 753 751 750 748 747 745 744 742 741
704 705 706 707 708 709 710 711 713 714 715 716 717 718 718 719 719 720 722 725 728 732 734 738 740 743 746 749 753 755 755 755 755 757 758 759 761 762 763 765 766 766 767 769 771 772 772 772 772 773 773 773 773 773 773 772 772 772 771 771 770 769 768 768 767 766 765 764 763 763 762 760 759 758 757 755 754 753 751 750 748 747 745 743 742 740
703 704 706 707 708 709 710 712 713 714 716 716 717 718 718 719 720 721 722 724 726 728 731 734 738 741 743 746 750 753 753 753 754 755 757 758 759 760 762 763 765 766 767 768 769 771 773 773 773 773 773 773 773 773 773 773 772 772 771 771 770 769 768 768 767 766 765 764 763 762 761 760 759 758 756 755 754 753 751 750 749 747 745 743 742 740
703 704 705 707 708 709 710 712 713 713 714 715 716 717 718 719 720 721 723 724 725 727 729 732 735 738 740 742 744 747 748 750 752 753 755 757 758 759 761 762 763 765 766 766 767 769 771 772 773 773 773 773 773 773 773 773 772 772 771 771 770 769 768 768 767 766 765 764 763 762 761 760 759 758 756 755 754 753 752 750 749 748 746 744 742 740
703 704 706 707 708 709 710 711 712 713 713 714 715 716 718 719 720 722 723 725 726 727 728 731 734 737 740 741 742 744 746 748 750 752 754 755 757 759 760 762 763 764 765 766 767 768 769 770 772 772 773 773 773 773 773 772 772 772 771 771 770 769 769 768 767 766 765 764 763 762 761 760 758 757 756 755 754 753 752 751 749 748 747 745 743 741
703 705 706 708 709 710 711 711 712 712 713 713 714 716 717 719 720 722 724 726 727 729 730 731 733 736 738 741 743 744 745 747 749 751 753 754 755 757 759 761 762 763 765 766 767 768 768 769 770 772 772 773 773 773 773 772 772 772 771 771 770 769 769 768 767 766 765 764 763 762 761 760 758 757 756 755 754 753 752 751 750 749 747 746 744 742
703 705 706 708 709 710 711 712 712 712 713 713 714 716 717 719 721 723 724 726 728 730 732 733 734 735 737 739 741 743 744 746 748 750 752 753 754 756 758 760 761 762 763 765 766 767 768 769 770 771 772 772 773 773 773 772 772 772 771 771 770 770 769 768 767 766 765 764 763 762 761 759 758 757 756 755 754 753 753 751 750 749 748 747 745 743
703 705 707 708 709 710 711 712 712 713 713 714 715 716 718 719 721 723 725 727 729 731 732 734 735 737 738 739 740 742 743 745 748 750 752 753 754 755 757 759 760 762 763 764 765 767 768 769 770 771 772 772 773 773 773 772 772 772 772 771 771 770 769 768 767 766 765 764 763 762 760 759 758 757 756 756 755 754 753 752 751 749 748 747 746 744
703 705 707 708 709 710 711 712 712 713 713 714 715 717 718 720 722 724 726 728 729 731 733 734 736 738 739 741 742 743 744 746 748 750 752 753 755 756 756 758 760 762 763 764 765 766 767 768 770 771 772 772 773 773 773 772 772 772 772 771 771 770 769 768 767 766 765 764 763 762 761 760 758 758 757 756 755 754 753 752 751 749 748 747 746 744
703 705 707 708 709 710 711 712 713 713 714 714 716 717 719 721 723 725 727 728 730 731 733 735 736 738 740 742 743 745 746 747 748 750 752 754 755 756 757 758 760 762 763 764 765 765 766 768 769 771 772 772 773 773 772 772 772 772 772 771 771 770 769 768 768 766 765 764 763 762 761 760 759 758 757 756 755 754 753 751 750 749 748 746 745 744
703 704 706 708 709 710 710 711 712 713 714 715 716 718 719 721 723 725 727 729 730 732 733 735 737 738 740 742 743 745 747 748 749 751 753 754 755 757 758 759 760 762 764 765 766 766 767 767 768 770 771 772 772 773 772 772 772 772 772 771 771 770 769 768 768 767 766 764 763 762 761 760 759 758 758 756 755 754 753 752 750 749 747 745 743 742
702 704 706 707 708 709 710 711 712 713 714 716 717 718 720 722 724 726 728 729 730 732 733 735 737 738 740 742 744 746 747 749 750 752 753 755 756 757 758 759 761 762 764 765 767 767 768 768 769 770 771 771 772 773 773 773 772 772 772 771 771 770 769 768 768 767 766 765 763 763 762 761 760 759 758 757 756 755 754 753 751 750 748 746 744 741
701 703 705 707 708 709 710 711 712 713 714 716 718 719 721 723 724 726 728 729 730 732 733 735 737 738 741 743 745 747 748 750 752 753 754 755 757 758 759 760 762 763 764 765 767 768 768 769 769 770 771 771 772 773 773 773 773 772 772 771 771 770 769 768 768 767 766 765 764 763 762 761 760 760 759 758 757 756 755 754 752 751 749 748 746 743
700 702 704 705 707 708 710 711 712 714 715 717 718 720 722 723 725 726 727 729 730 732 734 735 737 739 742 744 747 748 750 751 753 754 755 756 757 758 760 761 763 763 765 766 767 768 768 769 770 771 771 772 772 773 773 773 773 773 772 771 771 770 769 769 768 767 766 765 764 763 763 762 761 761 760 759 758 758 756 755 753 752 750 749 747 745
699 701 703 705 706 708 709 711 712 714 716 718 720 722 723 724 725 726 727 728 730 732 734 736 737 739 742 745 748 750 751 752 753 754 756 757 758 760 761 763 764 765 766 766 767 768 769 770 771 771 772 772 772 773 773 773 773 773 772 772 771 770 769 769 768 767 767 766 765 764 763 763 763 762 761 760 759 758 757 756 754 753 751 749 748 746
698 700 703 705 706 707 709 710 712 714 716 718 720 723 724 726 727 727 728 729 731 733 734 736 738 740 743 746 749 751 752 753 754 755 756 758 759 760 762 763 765 766 767 767 767 768 769 770 771 772 772 772 773 773 773 773 773 773 772 772 771 771 770 770 768 768 767 766 766 765 764 764 763 763 762 761 760 758 757 756 754 753 751 750 748 746
697 700 703 705 706 707 708 710 712 715 717 719 721 723 725 726 727 728 729 730 731 733 735 737 739 742 745 747 749 751 752 754 755 756 757 758 759 760 762 763 765 766 767 768 768 769 769 770 771 772 772 773 773 773 773 773 773 773 773 772 771 771 770 770 769 768 768 767 766 766 765 765 764 763 763 761 760 758 757 756 754 753 751 749 748 746
697 699 703 704 706 707 708 710 712 715 718 720 722 724 726 727 728 729 730 730 732 734 736 738 739 742 745 748 749 751 753 754 756 757 758 759 760 761 763 764 765 767 767 768 769 770 770 771 772 772 773 773 773 773 773 773 773 773 773 772 772 771 770 770 769 769 768 768 767 767 766 766 765 764 763 761 760 759 757 756 754 753 751 750 748 746
696 698 701 704 706 707 708 710 712 715 718 721 723 725 726 728 729 730 731 732 733 735 737 739 740 742 744 747 749 750 752 754 756 757 758 760 761 762 763 765 766 767 768 769 770 771 771 772 772 773 773 773 773 774 773 773 773 773 773 772 772 771 771 770 770 769 769 768 768 767 767 766 765 764 763 762 760 759 758 756 755 753 752 750 748 747
694 697 700 703 705 707 708 710 712 714 718 721 723 726 727 728 729 730 732 733 734 736 738 740 742 743 745 747 748 750 752 753 755 757 758 760 761 763 764 766 767 768 769 770 771 772 772 773 773 773 773 774 774 774 774 774 773 773 773 773 772 771 771 771 771 770 770 769 769 768 768 767 766 765 763 762 760 759 758 756 755 754 753 751 749 747
693 696 699 702 704 707 708 710 712 714 717 720 723 726 728 730 731 731 732 733 735 737 738 740 742 743 746 748 749 751 752 754 755 757 759 760 762 763 764 766 767 768 769 771 772 772 773 773 774 774 774 774 774 774 774 774 774 773 773 773 772 772 772 772 771 771 770 770 769 769 768 768 767 766 764 762 761 759 758 756 755 754 753 751 750 748
694 696 698 701 703 706 708 710 712 714 716 719 722 725 728 730 732 733 733 735 736 738 739 740 742 743 746 748 750 752 753 754 756 758 759 761 762 763 764 766 767 768 770 771 772 773 773 774 774 774 775 775 775 775 775 775 774 774 773 773 773 773 773 772 772 772 771 771 770 770 769 769 768 766 764 763 761 759 758 756 755 754 753 752 750 749
695 696 698 700 703 705 708 710 712 714 716 718 721 724 727 730 732 733 734 736 737 738 740 741 742 743 745 747 749 751 753 754 756 758 759 761 762 763 764 766 767 768 770 771 772 773 774 774 775 775 775 775 775 775 776 775 775 774 774 773 773 773 773 773 773 772 772 771 771 771 770 769 768 767 765 763 762 760 758 757 755 754 753 752 751 749